STARLINK-32930, 63203

Orbit data source: Space-Track

STARLINK-32930, 63203 is a payload satellite owned by SpaceX/Seattle (US) in LEO that was launched on Thu, 13 Mar 2025 UTC via an FALCON 9 launch vehicle from the Air Force Eastern Test Range (AFETR). Payload-class satellites include a variety of spacecraft equipped with specific instruments for various scientific and technological missions. These include communications satellites like Starlink; space stations such as the ISS; scientific satellites like the Hubble; Earth observation satellites from companies like Planet Labs, Umbra, and HawkEye 360; GPS; miniature CubeSats for education and research; and military/defense satellites.

Loading next visibility...
Identifier
63203, 2025-048W
Orbit
LEO
Last TLE update
22 hours ago
Origin
Manufacturer
SpaceX/Seattle
Mission
Operational Commercial Communications
Bus & Motor
STARLINK V2M, Unknown motor
Mass
730 kg wet, ~700 kg dry
Launch date (UTC)
2025-03-13 (2 months ago)
Launch vehicle
FALCON 9
Launch site
Air Force Eastern Test Range (AFETR)
Object type
Payload
Rocket body
Debris
Shape & HBR
Box + 2 Pan, 29 m
Radar Cross Section
33.884 m², Large (>1 m²)

Expand to show TLE details & history

TLE from 22 hours ago
0 STARLINK-32930
1 63203U 25048W   25128.36537642  .00000441  00000-0  17833-4 0  9992
2 63203  43.0023  10.7651 0001520 263.6275  96.4408 15.40696350  9961
Epoch: 2025-05-08T08:46Z
Definitive object data (Epoch: 2025-05-08T08:46:08.522Z)
Latitude
-0.00006°
Longitude
12.79261°
Altitude
443.944 km
Speed
7.648 km/s
True Right ascension
00h 43m 03s
True Declination
0° 00' 00"
Sunlit
Object was in daylight at TLE epoch
Visualization TLE readout
Latitude
38.27524°
Longitude
130.15502°
Altitude
447.084 km
Speed
7.649 km/s
Apparent Right ascension
06h 00m 56s
Apparent Declination
0° 59' 18"
Sunlit
Object is in daylight
Visualization observer readout
Local Sidereal Time
15:11:51
Azimuth
305.966° NW
Elevation
-33.809°
Doppler factor
1
Orbital elements
Apogee altitude
447.046 km
Perigee altitude
444.972 km
Semi-major axis
6,824.146 km
Eccentricity
0.000152
Inclination
43.0023°
RAAN
10.7651°
Arg. of periapsis
263.6275°
True anomaly
96.45811°
Mean anomaly
96.4408°
Eccentric anomaly
96.44945°
Mean motion
3.85009 °/min
BSTAR
0.000017833
Orbital period
93.5 mins
Loading maneuver chart data...
Loading SW <> Apogee altitude chart data...
Loading historical data...
Loading historical data...
Loading historical data...
Loading historical data...
Loading historical data...
Loading historical data...
Loading historical data...

STARLINK-32930 Visibility forecast

Observer location: undefined°, undefined°

Span
Click to sort rows by Start time (UTC) header in descending order
Start Az.
Max El. time (UTC)
Max El. Az.
Max El.
End time (UTC)
End Az.
5 mins2025-05-09 19:12:55.683Z217.435° SW2025-05-09 19:14:55.683Z175.401° S31.587°2025-05-09 19:17:55.683Z86.517° E
4 mins2025-05-09 20:51:55.683Z278.312° WNW2025-05-09 20:52:55.683Z306.057° NW38.782°2025-05-09 20:55:55.683Z66.866° ENE
5 mins2025-05-09 22:29:55.683Z298.618° NW2025-05-09 22:31:55.683Z19.39° NNE38.276°2025-05-09 22:34:55.683Z83.843° E
5 mins2025-05-10 00:07:55.683Z277.913° WNW2025-05-10 00:09:55.683Z200.131° SSW41.281°2025-05-10 00:12:55.683Z124.186° SE
|